"Pseudo-MPEC" for JJG0002

Created 2021 Jun 22 12:07:15 UT using Find_Orb

Click here for an explanation of pseudo-MPECs

 
 Astrometry: 
     JJG0002 KC2021 06 11%8--uEB3t]NtBl5FNkK!nUb-jHAstrometryKt[FI`80GgUDO'($J01
     JJG0002 KC2021 06 12IN9J_OX-*t:Nv@X@%X5@EEdredacted;NE(,IWFs3_clickHEl-@J01
     JJG0002 KC2021 06 12`5hereZ8tqm2a32,Q2Zv:gEKg9A^rN$2=forAmU;GexplanationJ01

Station data:
(J01) Observatorio Cielo Profundo, Leon  (N42.377689 W5.715500)  Spain.

Orbital elements:  JJG0002
   Perihelion 2020 Oct 22.308861 +/- 341.341 TT =  7:24:45 (JD 2459144.808861)
Epoch 2021 Jun 12.0 TT = JDT 2459377.5   Earth MOID: 0.3157   Ma: 0.0464
M 148.82419376 +/- 119.99564        (J2000 ecliptic)          AutoNEOCP
n   0.63957825 +/- 0.300299         Peri.  290.23019 +/- 60.721294
a   1.33415694 +/- 0.417607         Node   181.41947 +/- 55.219001
e   0.0416051 +/- 0.262859          Incl.   24.66487 +/- 28.198500
P   1.54/562.86d           H 18.9   G  0.15   U 11.9  SR
q 1.27864913 +/- 1.05597    Q 1.38966474 +/- 32.333
From 3 observations 2021 June 11-12 (83.6 min); mean residual 0".25
Residuals in arcseconds: 
210611 J01  .23-  .09-    210612 J01  .46+  .18+    210612 J01  .23-  .09-    

Ephemerides (geocentric):
Date (UTC) HH   RA              Dec         delta   r     elong  mag " sig PA
---- -- -- --  -------------   -----------  ------ ------ -----  --- ---- ---
2021 06 22 12  17 38 07.230   +43 39 03.26  .62781 1.3851 112.6 20.3  21d 145
2021 06 22 13  17 38 04.065   +43 38 54.74  .62784 1.3851 112.6 20.3  21d 145
2021 06 22 14  17 38 00.903   +43 38 46.13  .62787 1.3851 112.6 20.3  21d 145
2021 06 22 15  17 37 57.742   +43 38 37.42  .62790 1.3851 112.6 20.3  21d 145
2021 06 22 16  17 37 54.582   +43 38 28.62  .62793 1.3851 112.6 20.3  21d 145
2021 06 22 17  17 37 51.424   +43 38 19.72  .62796 1.3851 112.6 20.3  21d 145
2021 06 22 18  17 37 48.268   +43 38 10.73  .62800 1.3851 112.6 20.3  21d 145
2021 06 22 19  17 37 45.113   +43 38 01.65  .62803 1.3851 112.6 20.3  21d 145
2021 06 22 20  17 37 41.960   +43 37 52.47  .62806 1.3851 112.6 20.3  21d 145
2021 06 22 21  17 37 38.809   +43 37 43.19  .62809 1.3851 112.6 20.3  21d 145
2021 06 22 22  17 37 35.659   +43 37 33.83  .62812 1.3852 112.6 20.3  21d 145
2021 06 22 23  17 37 32.511   +43 37 24.37  .62815 1.3852 112.6 20.3  21d 145
2021 06 23 00  17 37 29.364   +43 37 14.81  .62818 1.3852 112.6 20.3  21d 145
2021 06 23 01  17 37 26.220   +43 37 05.16  .62821 1.3852 112.6 20.3  21d 145
2021 06 23 02  17 37 23.077   +43 36 55.42  .62824 1.3852 112.6 20.3  21d 145
2021 06 23 03  17 37 19.935   +43 36 45.58  .62827 1.3852 112.6 20.3  21d 145
2021 06 23 04  17 37 16.795   +43 36 35.65  .62831 1.3852 112.6 20.3  21d 145
2021 06 23 05  17 37 13.657   +43 36 25.63  .62834 1.3852 112.6 20.3  21d 145
2021 06 23 06  17 37 10.521   +43 36 15.51  .62837 1.3852 112.6 20.3  21d 145
2021 06 23 07  17 37 07.387   +43 36 05.29  .62840 1.3852 112.6 20.3  21d 145
2021 06 23 08  17 37 04.254   +43 35 54.99  .62843 1.3853 112.6 20.3  21d 145
2021 06 23 09  17 37 01.123   +43 35 44.59  .62846 1.3853 112.6 20.3  21d 145
2021 06 23 10  17 36 57.993   +43 35 34.09  .62849 1.3853 112.6 20.3  21d 145
2021 06 23 11  17 36 54.866   +43 35 23.51  .62852 1.3853 112.6 20.3  21d 145
2021 06 23 12  17 36 51.740   +43 35 12.83  .62855 1.3853 112.6 20.3  21d 145
2021 06 23 13  17 36 48.616   +43 35 02.05  .62858 1.3853 112.6 20.3  21d 145
2021 06 23 14  17 36 45.494   +43 34 51.18  .62862 1.3853 112.6 20.3  21d 145
2021 06 23 15  17 36 42.374   +43 34 40.22  .62865 1.3853 112.6 20.3  21d 145
2021 06 23 16  17 36 39.255   +43 34 29.17  .62868 1.3853 112.6 20.3  21d 145
2021 06 23 17  17 36 36.138   +43 34 18.02  .62871 1.3853 112.6 20.3  22d 145
2021 06 23 18  17 36 33.023   +43 34 06.78  .62874 1.3853 112.6 20.3  22d 145
2021 06 23 19  17 36 29.910   +43 33 55.44  .62877 1.3854 112.6 20.3  22d 146
2021 06 23 20  17 36 26.799   +43 33 44.01  .62880 1.3854 112.6 20.3  22d 146
2021 06 23 21  17 36 23.690   +43 33 32.49  .62883 1.3854 112.6 20.3  22d 146
2021 06 23 22  17 36 20.582   +43 33 20.88  .62887 1.3854 112.6 20.3  22d 146
2021 06 23 23  17 36 17.476   +43 33 09.17  .62890 1.3854 112.6 20.3  22d 146
2021 06 24 00  17 36 14.373   +43 32 57.37  .62893 1.3854 112.6 20.3  22d 146
2021 06 24 01  17 36 11.271   +43 32 45.47  .62896 1.3854 112.6 20.3  22d 146
2021 06 24 02  17 36 08.171   +43 32 33.48  .62899 1.3854 112.6 20.3  22d 145
2021 06 24 03  17 36 05.073   +43 32 21.40  .62902 1.3854 112.6 20.3  23d 145
2021 06 24 04  17 36 01.977   +43 32 09.23  .62905 1.3854 112.6 20.3  23d 145
2021 06 24 05  17 35 58.883   +43 31 56.96  .62908 1.3855 112.6 20.3  23d 145
2021 06 24 06  17 35 55.790   +43 31 44.60  .62912 1.3855 112.6 20.3  23d 145
2021 06 24 07  17 35 52.700   +43 31 32.15  .62915 1.3855 112.6 20.3  23d 145
2021 06 24 08  17 35 49.612   +43 31 19.60  .62918 1.3855 112.6 20.3  23d 145
2021 06 24 09  17 35 46.526   +43 31 06.96  .62921 1.3855 112.6 20.3  23d 145
2021 06 24 10  17 35 43.441   +43 30 54.23  .62924 1.3855 112.6 20.3  24d 145
2021 06 24 11  17 35 40.359   +43 30 41.40  .62927 1.3855 112.6 20.3  24d 145